Terminal Aerodrome Forecast
Issued by NWS

Home | Current Version | Previous Version | Text Only | Print | Product List | Glossary On
Versions: 1 2 3 4 5 6 7 8 9 10 11 12 13
000
FTUS43 KJKL 010539
TAFSJS
TAF
KSJS 010539Z 0106/0206 00000KT P6SM SKC
     FM010700 00000KT 4SM BR SKC
      TEMPO 0108/0112 2SM BR
     FM011200 00000KT 5SM BR SKC
     FM011400 VRB05KT P6SM FEW250=

USA.gov is the U.S. government's official web portal to all federal, state and local government web resources and services.